Flag for Netherlands Weather past 2 weeks in Apeldoorn, Netherlands

Now
66 °F

Broken clouds.


Feels Like: 66 °F
Forecast: 57 / 66 °F
Wind: 6 mph from Southwest

Location: Deelen

Current Time: Oct 1, 2014 at 4:15:30 PM

Latest Report: Oct 1, 2014 at 3:55 PM


Visibility: N/A

Pressure: 30.27 "Hg

Humidity: 78%

Dew point: 59 °F

Location of ApeldoornLocation

Historic Weather in Apeldoorn — Graph

°F

Apeldoorn temperature yesterday

Maximum temperature yesterday: 66 °F (at 1:55 PM)
Minimum temperature yesterday: 54 °F (at 11:25 PM)
Average temperature yesterday: 61 °F

Past Weeks' High & Low Weather Summary

 TemperatureHumidityPressure
High77 °F (Sep 17, 2:55 PM)100% (Sep 17, 3:25 AM)30.36 "Hg (Sep 17, 3:25 AM)
Low41 °F (Sep 23, 7:55 AM)52% (Sep 21, 1:55 PM)29.80 "Hg (Sep 24, 3:25 PM)
Average60 °F86%30.07 "Hg
* Reported Sep 16 2:25 PM — Oct 1 2:55 PM, Apeldoorn, Weather by CustomWeather, © 2014

Note: Actual official high and low records may vary slightly from our data, if they occured in-between our weather recording intervals... More about our weather records

Advertising

Apeldoorn weather history for previous 24 hours

 ConditionsComfort  
Time TempWeatherWind HumidityBarometerVisibility
2:55 PM
Oct 1
66 °FBroken clouds.6 mph78%30.27 "Hg6 mi
2:25 PM66 °FHaze.7 mph78%30.30 "Hg4 mi
1:55 PM64 °FFog.7 mph83%30.30 "Hg4 mi
1:25 PM63 °FFog.8 mph83%30.30 "Hg4 mi
12:55 PM63 °FFog.7 mph83%30.30 "Hg4 mi
12:25 PM61 °FFog.6 mph88%30.30 "Hg2 mi
11:55 AM59 °FFog.6 mph100%30.30 "Hg2 mi
11:25 AM59 °FFog.7 mph100%30.30 "Hg1 mi
10:55 AM57 °FFog.8 mph100%30.30 "Hg1 mi
10:25 AM57 °FFog.5 mph100%30.30 "Hg1 mi
9:55 AM57 °FFog.5 mph100%30.27 "Hg0 mi
9:25 AM55 °FFog.3 mph100%30.27 "Hg0 mi
8:55 AM55 °FFog.2 mph100%30.27 "Hg0 mi
8:25 AM55 °FFog.1 mph100%30.27 "Hg0 mi
7:55 AM54 °FFog.1 mph100%30.27 "Hg2 mi
7:25 AM52 °FFog.2 mph100%30.27 "Hg1 mi
6:55 AM52 °FFog.3 mph100%30.27 "Hg1 mi
6:25 AM50 °FFog.1 mph100%30.27 "Hg0 mi
5:55 AM54 °FFog.1 mph100%30.27 "Hg0 mi
5:25 AM54 °FFog.3 mph100%30.27 "Hg1 mi
4:55 AM55 °FFog.3 mph100%30.27 "Hg1 mi
4:25 AM55 °FFog.1 mph100%30.27 "Hg2 mi
3:55 AM55 °FFog.1 mph100%30.27 "Hg3 mi
3:25 AM54 °FFog.2 mph100%30.27 "Hg4 mi
2:55 AM52 °FFog.2 mph100%30.27 "Hg2 mi
2:25 AM52 °FFog.2 mph100%30.27 "Hg3 mi
1:55 AM54 °FFog.1 mph94%30.27 "Hg2 mi
1:25 AM55 °FFog.2 mph100%30.27 "Hg3 mi
12:55 AM55 °FFog.3 mph100%30.27 "Hg2 mi
12:25 AM54 °FFog.3 mph94%30.27 "Hg5 mi
11:55 PM
Sep 30
54 °FFog.2 mph100%30.27 "Hg2 mi
11:25 PM54 °FFog.1 mph100%30.27 "Hg3 mi
10:55 PM55 °FFog.2 mph94%30.27 "Hg3 mi
10:25 PM55 °FFog.1 mph100%30.27 "Hg3 mi
9:55 PM55 °FFog.3 mph100%30.27 "Hg3 mi
9:25 PM57 °FFog.2 mph94%30.27 "Hg3 mi
8:55 PM57 °FFog.1 mph100%30.27 "Hg4 mi
8:25 PM57 °FFog.1 mph100%30.27 "Hg5 mi
7:55 PM57 °FFog.2 mph100%30.27 "Hg4 mi
7:25 PM59 °FCool.2 mph94%30.24 "HgN/A
6:55 PM63 °FMild.2 mph83%30.24 "HgN/A
6:25 PM64 °FPartly sunny.5 mph78%30.24 "HgN/A
5:55 PM64 °FPartly sunny.9 mph78%30.24 "HgN/A
5:25 PM66 °FPassing clouds.10 mph73%30.24 "HgN/A
4:55 PM66 °FBroken clouds.9 mph78%30.24 "HgN/A
4:25 PM66 °FPartly sunny.12 mph78%30.24 "HgN/A
Weather by CustomWeather, © 2014

See weather overviewHow to use our weather pages